Content
SEND FEEDBACK

Daily
Averages
Monthly
Summary
United States of America

PETERSBURG, ILLINOIS


Home > North America > United States > Illinois
Elevation: 520 feet     Latitude: 40 01N     Longitude: 089 51W

WEATHER
 
SELECT A DAY
Number of Records: 203,069;   Date Range: 1/1/95 - 7/7/14
 
SHARE

PRINT THIS DATA

[ ← Previous Day ]
WEATHER ALMANAC - JANUARY 30, 2013
[ Next Day → ]
[ °C ]   °F
Weather ElementAverageHighLow
Temperature37.1 °F51.8 °F (2:09 am)21.9 °F (11:52 pm)
Dewpoint33.2 °F50 °F (1:52 am)14 °F (11:52 pm)
Humidity86 %100 % (3:49 am)69 % (9:52 pm)
Barometer29.48 in29.86 in (11:52 pm)29.31 in (7:42 am)
Wind Speed18.6 mph29.9 mph (5:52 pm)
Wind Gust38 mph (8:16 am)
Weather ElementAverage
Visibility9.2 mi
Wind DirectionWSW (241.8 °)

Weather ElementTotal
Precipitation0.26 in
Heating Degree Days28.2 (Base 65)
Averaged from 38 records on January 30, 2013
WEATHER CONDITIONS BREAKOUT
WIND DIRECTION BREAKOUT
WEATHER BY HOUR - JANUARY 30, 2013
[ °C ]   °F
Local TimeTemperatureDewpointHumidityBarometerVisibilityWind DirectionWind SpeedGust SpeedPrecipitationEventsConditions
1:52 AM51.1 °F50.0 °F96 %29.40 in10.0 miSouth (180°)5.8 mph0.06 inRainLight Rain
2:09 AM51.8 °F50.0 °F94 %29.42 in10.0 miWSW (250°)5.8 mph0.01 inOvercast
2:52 AM51.1 °F50.0 °F96 %29.47 in10.0 miWSW (250°)11.5 mph0.01 inRainLight Rain
3:49 AM42.8 °F42.8 °F100 %29.36 in10.0 miNE (50°)5.8 mph0.03 inOvercast
3:52 AM43.0 °F42.1 °F97 %29.36 in10.0 miENE (70°)6.9 mph0.03 inOvercast
4:52 AM44.1 °F43.0 °F96 %29.36 in3.0 miCalm0.00 inRainLight Rain
4:59 AM44.6 °F42.8 °F93 %29.37 in4.0 miWest (260°)3.5 mph0.01 inRainLight Rain
5:52 AM45.0 °F44.1 °F97 %29.34 in10.0 miSSE (150°)4.6 mph0.02 inOvercast
6:23 AM48.2 °F48.2 °F100 %29.34 in10.0 miSouth (180°)18.4 mph23.0 mphOvercast
6:52 AM51.1 °F48.9 °F92 %29.34 in10.0 miSouth (180°)16.1 mph21.9 mphOvercast
7:42 AM51.8 °F48.2 °F88 %29.31 in10.0 miSSW (200°)20.7 mph26.5 mph0.00 inRainLight Rain
7:52 AM51.1 °F48.9 °F92 %29.32 in6.0 miSSW (200°)17.3 mph26.5 mph0.00 inRainLight Rain
8:16 AM44.6 °F42.8 °F93 %29.35 in9.0 miWSW (250°)27.6 mph38.0 mph0.03 inRainLight Rain
8:23 AM42.8 °F41.0 °F93 %29.36 in10.0 miWest (260°)25.3 mph38.0 mph0.03 inRainLight Rain
8:52 AM39.9 °F37.9 °F93 %29.39 in10.0 miWSW (250°)23.0 mph29.9 mph0.03 inOvercast
9:25 AM39.2 °F35.6 °F87 %29.38 in10.0 miWSW (250°)23.0 mph29.9 mphOvercast
9:52 AM39.0 °F35.1 °F86 %29.39 in10.0 miWest (260°)18.4 mph32.2 mphOvercast
10:03 AM39.2 °F35.6 °F87 %29.39 in10.0 miWest (260°)23.0 mph31.1 mphOvercast
10:52 AM37.9 °F34.0 °F86 %29.41 in10.0 miWest (260°)25.3 mph31.1 mphOvercast
11:12 AM37.4 °F33.8 °F87 %29.41 in10.0 miWest (270°)18.4 mph31.1 mphOvercast
11:52 AM35.1 °F33.1 °F92 %29.42 in10.0 miWest (280°)21.9 mph34.5 mphOvercast
12:07 PM33.8 °F32.0 °F93 %29.41 in10.0 miWest (280°)19.6 mph28.8 mphOvercast
12:52 PM33.1 °F30.0 °F89 %29.44 in10.0 miWest (280°)26.5 mph34.5 mphOvercast
1:52 PM32.0 °F28.0 °F85 %29.45 in7.0 miWest (280°)18.4 mph28.8 mphOvercast
2:04 PM32.0 °F28.4 °F87 %29.45 in10.0 miWNW (300°)19.6 mph26.5 mphOvercast
2:13 PM32.0 °F26.6 °F80 %29.48 in10.0 miWest (280°)21.9 mph31.1 mphOvercast
2:30 PM30.2 °F26.6 °F86 %29.49 in10.0 miWNW (290°)23.0 mph33.4 mphOvercast
2:52 PM30.0 °F23.0 °F75 %29.51 in10.0 miWNW (290°)21.9 mph35.7 mphOvercast
3:52 PM28.9 °F21.9 °F75 %29.56 in10.0 miWNW (300°)23.0 mph32.2 mphOvercast
4:52 PM28.0 °F21.9 °F78 %29.61 in9.0 miWNW (290°)25.3 mph31.1 mph0.00 inSnowLight Snow
5:52 PM26.1 °F19.9 °F78 %29.65 in9.0 miWNW (290°)29.9 mph38.0 mph0.00 inSnowLight Snow
6:52 PM26.1 °F18.0 °F71 %29.68 in9.0 miWNW (290°)20.7 mph31.1 mph0.00 inSnowLight Snow
7:52 PM25.0 °F17.1 °F72 %29.73 in9.0 miWNW (290°)21.9 mph31.1 mph0.00 inSnowLight Snow
8:52 PM26.1 °F18.0 °F71 %29.76 in9.0 miWest (280°)18.4 mph29.9 mph0.00 inSnowLight Snow
9:24 PM24.8 °F17.6 °F74 %29.76 in9.0 miWest (280°)27.6 mph34.5 mph0.00 inSnowLight Snow
9:52 PM24.1 °F15.1 °F69 %29.80 in9.0 miWNW (290°)18.4 mph32.2 mph0.00 inSnowLight Snow
10:52 PM24.1 °F15.1 °F69 %29.82 in9.0 miWNW (290°)25.3 mph33.4 mph0.00 inSnowLight Snow
11:52 PM21.9 °F14.0 °F72 %29.86 in10.0 miWest (280°)23.0 mph28.8 mph0.00 inMostly Cloudy
Hourly data recorded from KSPI, located miles away from Petersburg, Illinois







STORIES FROM OUR PARTNERS